Flag for U.S.A. Weather past 2 weeks in Simi Valley, California, U.S.A.

Now
69 °F

Sunny.


Feels Like: 69 °F
Forecast: 53 / 70 °F
Wind: 6 mph from Southeast

Location: Van Nuys Airport


UV Index: 0 (Low)

Visibility: 10 mi


Pressure: 29.88 "Hg

Humidity: 39%

Dew point: 43 °F

Location of Simi ValleyLocation

Historic Weather in Simi Valley

°F

Simi Valley temperature yesterday

Maximum temperature yesterday: 75 °F (at 2:51 PM)
Minimum temperature yesterday: 58 °F (at 4:51 AM)
Average temperature yesterday: 66 °F

Past Weeks' High & Low Weather Summary

 TemperatureHumidityPressure
High88 °F (Apr 14, 2:51 PM)88% (Apr 16, 2:03 AM)30.04 "Hg (Apr 16, 2:03 AM)
Low51 °F (Apr 10, 4:51 AM)8% (Apr 9, 6:51 PM)29.75 "Hg (Apr 16, 4:51 PM)
Average66 °F50%29.91 "Hg
* Reported Apr 9 6:51 PM — Apr 24 6:51 PM, Simi Valley, Weather by CustomWeather, © 2014

Note: Actual official high and low records may vary slightly from our data, if they occured in-between our weather recording intervals... More about our weather records

Advertising

Historic Weather Conditions — Data for Previous 24 hours

 ConditionsComfort  
Time TempWeatherWind HumidityBarometerVisibility
6:51 PM
Apr 24
73 °FSunny.7 mph21%29.87 "Hg10 mi
5:51 PM76 °FSunny.9 mph19%29.86 "Hg10 mi
4:51 PM80 °FSunny.10 mph23%29.85 "Hg10 mi
3:51 PM80 °FSunny.12 mph24%29.86 "Hg10 mi
2:51 PM81 °FSunny.10 mph25%29.88 "Hg10 mi
1:51 PM82 °FSunny.3 mph15%29.89 "Hg10 mi
12:51 PM80 °FSunny.6 mph18%29.92 "Hg10 mi
11:51 AM77 °FSunny.3 mph19%29.95 "Hg10 mi
10:51 AM74 °FSunny.No wind23%29.96 "Hg10 mi
9:51 AM68 °FPassing clouds.3 mph30%29.96 "Hg10 mi
8:51 AM66 °FPassing clouds.3 mph36%29.97 "Hg10 mi
7:51 AM60 °FScattered clouds.No wind42%29.96 "Hg10 mi
6:51 AM54 °FClear.No wind51%29.95 "Hg10 mi
5:51 AM53 °FClear.No wind52%29.93 "Hg10 mi
4:51 AM54 °FClear.No wind51%29.91 "Hg10 mi
3:51 AM56 °FClear.No wind47%29.91 "Hg10 mi
2:51 AM57 °FClear.No wind44%29.91 "Hg10 mi
1:51 AM58 °FClear.3 mph44%29.91 "Hg10 mi
12:51 AM62 °FClear.6 mph25%29.92 "Hg10 mi
11:51 PM
Apr 23
62 °FClear.No wind35%29.92 "Hg10 mi
10:51 PM65 °FClear.5 mph21%29.92 "Hg10 mi
9:51 PM66 °FClear.6 mph19%29.91 "Hg10 mi
8:51 PM67 °FClear.14 mph23%29.90 "Hg10 mi
Weather by CustomWeather, © 2014

See weather overview